Weather History for Brno, Czech Republic

Change the Weather History Date:

Sunday, February 24, 2013

  Actual Average Record
Temperature  
Mean Temperature 36 °F -  
Max Temperature 39 °F 45 °F - ()
Min Temperature 32 °F 31 °F - ()
Degree Days  
Heating Degree Days 30    
Moisture  
Dew Point 34 °F    
Average Humidity 93    
Maximum Humidity 100    
Minimum Humidity 82    
Precipitation  
Precipitation 0.12 in 0.03 in - ()
Sea Level Pressure  
Sea Level Pressure 29.81 in    
Wind  
Wind Speed 10 mph ()    
Max Wind Speed 20 mph    
Max Gust Speed -    
Visibility 2.0 miles    
Events Fog , Rain    
T = Trace of Precipitation, MM = Missing Value Source: Averaged Metar Reports

Daily Weather History Graph

Daily Weather History Graph

Search for Another Location

Airport:

Trip Planner

Search our weather history database for the weather conditions in past years. The results will help you decide how hot, cold, wet, or windy it might be!

Date:

Astronomy

Feb. 24, 2013 Rise Set
Actual Time 6:45 AM CET 5:28 PM CET
Civil Twilight 6:13 AM CET 6:00 PM CET
Nautical Twilight 5:36 AM CET 6:37 PM CET
Astronomical Twilight 4:59 AM CET 7:14 PM CET
Moon 4:19 PM CET (2/24) 5:36 AM CET (2/24)
Length of Visible Light 11h 47m
Length of Day
10h 43m
Waxing Gibbous, 98% of the Moon is Illuminated
Feb 24
Waxing Gibbous
Feb 25
Full
Mar 4
Last Quarter
Mar 11
New
Mar 19
First Quarter

Hourly Weather History & Observations

Time (CET) Temp. Windchill Dew Point Humidity Pressure Visibility Wind Dir Wind Speed Gust Speed Precip Events Conditions
12:00 AM 33.8 °F 26.4 °F 32.0 °F 93% 29.80 in 1.6 mi ENE 9.2 mph - N/A Rain Light Rain
12:30 AM 33.8 °F 27.0 °F 32.0 °F 93% 29.80 in 1.6 mi ENE 8.1 mph - N/A Rain Light Rain
1:00 AM 33 °F - 32 °F 92% 29.83 in 2 mi NE 8.9 mph - - Rain Light Rain
1:00 AM 33.8 °F 25.8 °F 32.0 °F 93% 29.77 in - NE 10.4 mph - N/A Rain Light Rain
1:30 AM 33.8 °F 25.3 °F 32.0 °F 93% 29.77 in - NE 11.5 mph - N/A Rain Light Rain
2:00 AM 35.6 °F 27.1 °F 33.8 °F 93% 29.74 in - NE 12.7 mph - N/A Rain Light Rain
2:30 AM 33.8 °F 23.2 °F 33.8 °F 100% 29.74 in 2.2 mi ENE 17.3 mph - N/A Rain Light Rain
3:00 AM 33.8 °F 22.5 °F 32.0 °F 93% 29.71 in 2.2 mi ENE 19.6 mph - N/A Rain Light Rain
3:30 AM 35.6 °F 25.5 °F 33.8 °F 93% 29.71 in 2.2 mi ENE 17.3 mph - N/A Rain Light Rain
4:00 AM 35.6 °F 25.5 °F 33.8 °F 93% 29.71 in 2.2 mi ENE 17.3 mph - N/A Rain Light Rain
4:30 AM 35.6 °F 25.2 °F 33.8 °F 93% 29.68 in - ENE 18.4 mph - N/A Rain Light Rain
5:00 AM 35.6 °F 25.2 °F 32.0 °F 87% 29.71 in 2.2 mi ENE 18.4 mph - N/A Rain Light Rain
5:30 AM 35.6 °F 25.9 °F 32.0 °F 87% 29.71 in 2.2 mi ENE 16.1 mph - N/A Rain Light Rain
6:00 AM 35.6 °F 26.2 °F 32.0 °F 87% 29.71 in 2.2 mi ENE 15.0 mph - N/A Rain Light Rain
6:15 AM 33.8 °F 24.3 °F 32.0 °F 93% 29.71 in 1.9 mi ENE 13.8 mph - N/A Rain Light Rain
6:30 AM 33.8 °F 24.8 °F 32.0 °F 93% 29.74 in 1.6 mi ENE 12.7 mph - N/A Rain Light Rain
7:00 AM 35 °F - 33 °F 87% 29.79 in 1 mi East 11.2 mph - - Rain Light Rain
7:00 AM 33.8 °F 24.8 °F 33.8 °F 100% 29.74 in 1.2 mi ENE 12.7 mph - N/A Rain Light Rain
7:30 AM 33.8 °F 25.8 °F 32.0 °F 93% 29.74 in 0.9 mi East 10.4 mph - N/A Rain Light Rain
8:00 AM 33.8 °F 27.7 °F 32.0 °F 93% 29.77 in 0.7 mi East 6.9 mph - N/A Rain Light Rain
8:30 AM 37.4 °F 29.3 °F 35.6 °F 93% 29.77 in 1.9 mi ESE 12.7 mph - N/A Rain Light Rain
8:55 AM 37.4 °F 30.8 °F 35.6 °F 93% 29.77 in 3.1 mi SE 9.2 mph - N/A Rain Light Rain
9:00 AM 37.4 °F 30.8 °F 35.6 °F 93% 29.77 in 4.3 mi SE 9.2 mph - N/A   Overcast
9:30 AM 37.4 °F 31.4 °F 35.6 °F 93% 29.80 in 4.3 mi SSE 8.1 mph - N/A   Overcast
9:46 AM 35.6 °F 31.7 °F 35.6 °F 100% 29.80 in 2.8 mi South 4.6 mph - N/A Rain Light Rain
9:54 AM 33.8 °F 28.6 °F 33.8 °F 100% 29.83 in 1.6 mi SSW 5.8 mph - N/A Rain Light Rain
10:00 AM 33.8 °F 28.6 °F 33.8 °F 100% 29.83 in 0.7 mi SSW 5.8 mph - N/A Rain Light Rain
10:02 AM 33.8 °F 29.6 °F 32.0 °F 93% 29.83 in 0.5 mi SW 4.6 mph - N/A Fog , Rain Light Rain
10:08 AM 33.8 °F 29.6 °F 32.0 °F 93% 29.83 in 0.2 mi SW 4.6 mph - N/A Fog , Rain Light Rain
10:30 AM 33.8 °F 29.6 °F 32.0 °F 93% 29.83 in 0.2 mi SW 4.6 mph - N/A Fog , Rain Light Rain
10:37 AM 33.8 °F - 32.0 °F 93% 29.83 in 0.4 mi Variable 2.3 mph - N/A Fog , Rain Light Rain
10:39 AM 33.8 °F 30.8 °F 32.0 °F 93% 29.83 in 0.6 mi SSW 3.5 mph - N/A Rain Light Rain
11:00 AM 33.8 °F - 32.0 °F 93% 29.83 in 0.9 mi Variable 2.3 mph - N/A   Light Drizzle
11:30 AM 33.8 °F - 32.0 °F 93% 29.83 in 0.6 mi Variable 1.2 mph - N/A   Light Drizzle
12:00 PM 33.8 °F - 33.8 °F 100% 29.83 in 0.9 mi North 2.3 mph - N/A   Overcast
12:30 PM 35.6 °F - 33.8 °F 93% 29.83 in 0.9 mi Variable 1.2 mph - N/A   Overcast
1:00 PM 35 °F - 33 °F 90% 29.89 in 1 mi WSW 2.2 mph - -   Mist
1:00 PM 33.8 °F - 33.8 °F 100% 29.83 in 0.7 mi Calm Calm - N/A   Overcast
1:30 PM 35.6 °F - 33.8 °F 93% 29.83 in 1.2 mi Calm Calm - N/A   Overcast
2:00 PM 35.6 °F - 33.8 °F 93% 29.83 in 1.4 mi Variable 1.2 mph - N/A   Overcast
2:30 PM 35.6 °F 31.7 °F 35.6 °F 100% 29.83 in 1.9 mi East 4.6 mph - N/A   Overcast
2:56 PM 35.6 °F 28.0 °F 33.8 °F 93% 29.83 in - ENE 10.4 mph - N/A Rain Light Rain
3:00 PM 35.6 °F 28.0 °F 33.8 °F 93% 29.83 in - ENE 10.4 mph - N/A Rain Light Rain
3:30 PM 37.4 °F 30.3 °F 35.6 °F 93% 29.83 in 3.1 mi ENE 10.4 mph - N/A Rain Light Rain
4:00 PM 37.4 °F 30.3 °F 33.8 °F 87% 29.86 in - ENE 10.4 mph - N/A Rain Light Rain
4:30 PM 37.4 °F 30.3 °F 35.6 °F 93% 29.86 in - ENE 10.4 mph - N/A Rain Light Rain
5:00 PM 37.4 °F 30.8 °F 35.6 °F 93% 29.83 in 3.1 mi ENE 9.2 mph - N/A Rain Light Rain
5:30 PM 35.6 °F 28.6 °F 33.8 °F 93% 29.86 in 2.2 mi East 9.2 mph - N/A Rain Light Rain
6:00 PM 35.6 °F 28.6 °F 33.8 °F 93% 29.86 in 2.2 mi ENE 9.2 mph - N/A Rain Light Rain
6:30 PM 37.4 °F 29.8 °F 35.6 °F 93% 29.86 in 2.5 mi NE 11.5 mph - N/A Rain Light Rain
6:46 PM 39.2 °F 32.0 °F 37.4 °F 93% 29.86 in 3.1 mi ENE 11.5 mph - N/A Rain Light Rain
7:00 PM 40 °F - 36 °F 82% 29.90 in 6 mi ENE 11.2 mph - - Rain Light Rain
7:00 PM 39.2 °F 32.0 °F 37.4 °F 93% 29.86 in 5.6 mi ENE 11.5 mph - N/A Rain Light Rain
7:30 PM 37.4 °F 30.8 °F 33.8 °F 87% 29.86 in 5.6 mi East 9.2 mph - N/A Rain Light Rain
8:00 PM 37.4 °F 30.8 °F 35.6 °F 93% 29.89 in 2.2 mi ENE 9.2 mph - N/A Rain Light Rain
8:30 PM 37.4 °F 28.5 °F 35.6 °F 93% 29.89 in 2.2 mi ENE 15.0 mph - N/A Rain Light Rain
9:00 PM 37.4 °F 29.8 °F 35.6 °F 93% 29.89 in 1.6 mi ENE 11.5 mph - N/A Rain Light Rain
9:30 PM 37.4 °F 29.8 °F 35.6 °F 93% 29.89 in 1.6 mi ENE 11.5 mph - N/A Rain Light Rain
10:00 PM 37.4 °F 28.9 °F 35.6 °F 93% 29.89 in 1.6 mi ENE 13.8 mph - N/A Rain Light Rain
10:30 PM 37.4 °F 27.8 °F 35.6 °F 93% 29.89 in 1.6 mi ENE 17.3 mph - N/A Rain Light Rain
11:00 PM 37.4 °F 28.5 °F 35.6 °F 93% 29.89 in 1.6 mi ENE 15.0 mph - N/A   Overcast
11:30 PM 37.4 °F 28.9 °F 35.6 °F 93% 29.89 in 1.6 mi ENE 13.8 mph - N/A   Overcast